| time (UTC) | temp F | wind direction | speed knots | gust knots | rain 1hr in | rain 24hr in | rain mn in | humidity % | barometer mb |
| 20260508111433 | 60 | 342 | 0.0 | 2.6 | 0.00 | 0.00 | 0.00 | 87 | 1014.5 |
| 20260508110925 | 60 | 127 | 0.0 | 2.6 | 0.00 | 0.00 | 0.00 | 87 | 1014.5 |
| 20260508110418 | 60 | 57 | 2.6 | 2.6 | 0.00 | 0.00 | 0.00 | 87 | 1014.5 |
| 20260508105403 | 60 | 344 | 0.9 | 2.6 | 0.00 | 0.00 | 0.00 | 87 | 1014.5 |
| 20260508104855 | 60 | 30 | 0.9 | 2.6 | 0.00 | 0.00 | 0.00 | 87 | 1014.5 |
| 20260508104347 | 60 | 266 | 0.0 | 2.6 | 0.00 | 0.00 | 0.00 | 87 | 1014.5 |
| 20260508103839 | 60 | 189 | 2.6 | 2.6 | 0.00 | 0.00 | 0.00 | 87 | 1014.5 |
| 20260508103332 | 60 | 11 | 0.0 | 2.6 | 0.00 | 0.00 | 0.00 | 87 | 1014.5 |
| 20260508102824 | 60 | 326 | 0.9 | 1.7 | 0.00 | 0.00 | 0.00 | 87 | 1014.5 |
| 20260508102317 | 60 | 330 | 0.0 | 3.5 | 0.00 | 0.00 | 0.00 | 87 | 1014.5 |
| 20260508101809 | 60 | 1 | 0.9 | 3.5 | 0.00 | 0.00 | 0.00 | 87 | 1014.5 |
| 20260508101302 | 60 | 316 | 0.0 | 0.9 | 0.00 | 0.00 | 0.00 | 87 | 1014.5 |
| 20260508100753 | 60 | 317 | 0.0 | 0.9 | 0.00 | 0.00 | 0.00 | 87 | 1014.5 |
| 20260508100246 | 60 | 290 | 0.9 | 0.9 | 0.00 | 0.00 | 0.00 | 87 | 1014.5 |
| 20260508095739 | 60 | 315 | 0.9 | 1.7 | 0.00 | 0.00 | 0.00 | 87 | 1014.5 |
| 20260508095231 | 60 | 313 | 0.0 | 1.7 | 0.00 | 0.00 | 0.00 | 88 | 1014.5 |
| 20260508094216 | 59 | 308 | 0.9 | 2.6 | 0.00 | 0.00 | 0.00 | 88 | 1014.5 |
| 20260508093708 | 59 | 288 | 1.7 | 3.5 | 0.00 | 0.00 | 0.00 | 88 | 1014.5 |
| 20260508093201 | 59 | 283 | 2.6 | 3.5 | 0.00 | 0.00 | 0.00 | 89 | 1014.5 |
| 20260508091637 | 60 | 264 | 0.0 | 1.7 | 0.00 | 0.00 | 0.00 | 90 | 1014.5 |
| 20260508091131 | 60 | 244 | 0.9 | 1.7 | 0.00 | 0.00 | 0.00 | 90 | 1014.5 |
| 20260508090622 | 59 | 242 | 0.9 | 1.7 | 0.00 | 0.00 | 0.00 | 90 | 1014.8 |
| 20260508090115 | 59 | 243 | 1.7 | 1.7 | 0.00 | 0.00 | 0.00 | 89 | 1014.5 |
| 20260508085608 | 60 | 266 | 0.9 | 0.9 | 0.00 | 0.00 | 0.00 | 89 | 1014.5 |
| 20260508085100 | 60 | 267 | 0.0 | 0.9 | 0.00 | 0.00 | 0.00 | 89 | 1014.8 |
| 20260508084552 | 60 | 270 | 0.9 | 0.9 | 0.00 | 0.00 | 0.00 | 89 | 1014.5 |
| 20260508084045 | 60 | 271 | 0.9 | 1.7 | 0.00 | 0.00 | 0.00 | 89 | 1014.8 |
| 20260508083537 | 60 | 254 | 0.9 | 1.7 | 0.00 | 0.00 | 0.00 | 89 | 1014.8 |
| 20260508083030 | 60 | 228 | 1.7 | 1.7 | 0.00 | 0.00 | 0.00 | 89 | 1014.8 |
| 20260508082522 | 60 | 255 | 0.0 | 0.9 | 0.00 | 0.00 | 0.00 | 88 | 1014.8 |
| 20260508082014 | 60 | 256 | 0.0 | 0.9 | 0.00 | 0.00 | 0.00 | 88 | 1014.8 |
| 20260508081506 | 60 | 256 | 0.0 | 2.6 | 0.00 | 0.00 | 0.00 | 88 | 1014.8 |
| 20260508080452 | 60 | 150 | 1.7 | 2.6 | 0.00 | 0.00 | 0.00 | 88 | 1015.1 |
| 20260508075436 | 60 | 206 | 1.7 | 3.5 | 0.00 | 0.00 | 0.00 | 88 | 1015.1 |
| 20260508073913 | 60 | 217 | 0.9 | 2.6 | 0.00 | 0.00 | 0.00 | 87 | 1015.1 |
| 20260508073405 | 60 | 204 | 0.9 | 2.6 | 0.00 | 0.00 | 0.00 | 87 | 1015.1 |
| 20260508072858 | 60 | 176 | 2.6 | 2.6 | 0.00 | 0.00 | 0.00 | 87 | 1015.1 |
| 20260508072350 | 60 | 216 | 1.7 | 2.6 | 0.00 | 0.00 | 0.00 | 87 | 1015.1 |
| 20260508071843 | 60 | 267 | 0.0 | 2.6 | 0.00 | 0.00 | 0.00 | 87 | 1015.1 |
| 20260508071335 | 60 | 350 | 0.0 | 1.7 | 0.00 | 0.00 | 0.00 | 88 | 1015.1 |
| 20260508070828 | 60 | 24 | 1.7 | 1.7 | 0.00 | 0.00 | 0.00 | 87 | 1015.1 |
| 20260508065812 | 60 | 294 | 0.0 | 2.6 | 0.00 | 0.00 | 0.00 | 88 | 1015.1 |
| 20260508065307 | 60 | 141 | 0.9 | 2.6 | 0.00 | 0.00 | 0.00 | 88 | 1015.1 |
| 20260508064757 | 60 | 179 | 0.0 | 1.7 | 0.00 | 0.00 | 0.00 | 88 | 1015.1 |
| 20260508064250 | 60 | 178 | 0.0 | 1.7 | 0.00 | 0.00 | 0.00 | 88 | 1015.1 |
| 20260508063234 | 60 | 272 | 0.0 | 2.6 | 0.00 | 0.00 | 0.00 | 88 | 1015.1 |
| 20260508062727 | 60 | 251 | 0.0 | 0.9 | 0.00 | 0.00 | 0.00 | 88 | 1015.1 |
| 20260508062219 | 60 | 252 | 0.9 | 0.9 | 0.00 | 0.00 | 0.00 | 88 | 1014.8 |
| 20260508061713 | 60 | 248 | 0.0 | 1.7 | 0.00 | 0.00 | 0.00 | 88 | 1015.1 |
| 20260508061204 | 60 | 249 | 0.0 | 1.7 | 0.00 | 0.00 | 0.00 | 88 | 1014.8 |
| 20260508060657 | 59 | 199 | 0.0 | 2.6 | 0.00 | 0.00 | 0.00 | 88 | 1014.8 |
| 20260508055642 | 60 | 175 | 3.5 | 6.1 | 0.00 | 0.00 | 0.00 | 88 | 1015.1 |
| 20260508055135 | 60 | 171 | 1.7 | 2.6 | 0.00 | 0.00 | 0.00 | 88 | 1014.8 |
| 20260508054626 | 60 | 132 | 0.9 | 3.5 | 0.00 | 0.00 | 0.00 | 89 | 1014.8 |
| 20260508054119 | 59 | 247 | 0.0 | 5.2 | 0.00 | 0.00 | 0.00 | 88 | 1015.1 |
| 20260508053611 | 60 | 231 | 1.7 | 5.2 | 0.00 | 0.00 | 0.00 | 88 | 1015.1 |
| 20260508053104 | 60 | 174 | 1.7 | 2.6 | 0.00 | 0.00 | 0.00 | 89 | 1014.8 |
| 20260508052556 | 60 | 191 | 1.7 | 2.6 | 0.00 | 0.00 | 0.00 | 89 | 1015.1 |
| 20260508052048 | 60 | 139 | 1.7 | 3.5 | 0.00 | 0.00 | 0.00 | 89 | 1015.1 |
| 20260508051034 | 60 | 224 | 0.9 | 2.6 | 0.00 | 0.00 | 0.00 | 89 | 1015.1 |
| 20260508050525 | 60 | 181 | 1.7 | 2.6 | 0.00 | 0.00 | 0.00 | 89 | 1014.8 |
| 20260508050017 | 60 | 261 | 0.0 | 2.6 | 0.00 | 0.00 | 0.00 | 89 | 1014.8 |
| 20260508045510 | 60 | 295 | 0.9 | 2.6 | 0.00 | 0.00 | 0.00 | 89 | 1014.8 |
| 20260508045002 | 60 | 252 | 1.7 | 3.5 | 0.00 | 0.00 | 0.00 | 89 | 1014.8 |
| 20260508044455 | 59 | 295 | 0.9 | 3.5 | 0.00 | 0.00 | 0.00 | 89 | 1014.8 |
| 20260508043948 | 59 | 274 | 2.6 | 2.6 | 0.00 | 0.00 | 0.00 | 89 | 1014.5 |
| 20260508043440 | 59 | 276 | 1.7 | 2.6 | 0.00 | 0.00 | 0.00 | 89 | 1014.8 |
| 20260508042932 | 59 | 270 | 0.9 | 2.6 | 0.00 | 0.00 | 0.00 | 89 | 1014.5 |
| 20260508042424 | 59 | 313 | 0.9 | 2.6 | 0.00 | 0.00 | 0.00 | 89 | 1014.5 |
| 20260508041917 | 59 | 266 | 0.9 | 2.6 | 0.00 | 0.00 | 0.00 | 89 | 1014.5 |
| 20260508041409 | 59 | 249 | 1.7 | 2.6 | 0.00 | 0.00 | 0.00 | 89 | 1014.5 |
| 20260508040902 | 59 | 245 | 2.6 | 3.5 | 0.00 | 0.00 | 0.00 | 89 | 1014.5 |
| 20260508035846 | 59 | 228 | 1.7 | 3.5 | 0.00 | 0.00 | 0.00 | 89 | 1014.1 |
| 20260508035339 | 59 | 208 | 1.7 | 3.5 | 0.00 | 0.00 | 0.00 | 89 | 1014.1 |
| 20260508034831 | 59 | 246 | 2.6 | 3.5 | 0.00 | 0.00 | 0.00 | 89 | 1014.1 |
| 20260508034324 | 59 | 244 | 2.6 | 5.2 | 0.00 | 0.00 | 0.00 | 89 | 1013.8 |
| 20260508032801 | 59 | 238 | 3.5 | 6.1 | 0.00 | 0.00 | 0.00 | 89 | 1013.8 |
| 20260508031745 | 59 | 282 | 1.7 | 3.5 | 0.00 | 0.00 | 0.00 | 89 | 1013.4 |
| 20260508031238 | 59 | 232 | 1.7 | 5.2 | 0.00 | 0.00 | 0.00 | 89 | 1013.8 |
| 20260508030731 | 59 | 228 | 2.6 | 5.2 | 0.00 | 0.00 | 0.00 | 89 | 1013.4 |
| 20260508030223 | 59 | 227 | 2.6 | 5.2 | 0.00 | 0.00 | 0.00 | 89 | 1013.4 |
| 20260508025715 | 59 | 236 | 1.7 | 7.0 | 0.00 | 0.00 | 0.00 | 89 | 1013.4 |
| 20260508024152 | 59 | 268 | 3.5 | 7.0 | 0.00 | 0.00 | 0.00 | 88 | 1013.4 |
| 20260508023645 | 60 | 260 | 2.6 | 7.0 | 0.00 | 0.00 | 0.00 | 88 | 1013.4 |
| 20260508022629 | 60 | 266 | 1.7 | 7.0 | 0.00 | 0.00 | 0.00 | 87 | 1013.1 |
| 20260508022122 | 60 | 225 | 2.6 | 7.0 | 0.00 | 0.00 | 0.00 | 86 | 1013.1 |
| 20260508021615 | 60 | 228 | 5.2 | 7.8 | 0.00 | 0.00 | 0.00 | 86 | 1013.1 |
| 20260508020600 | 61 | 184 | 5.2 | 6.1 | 0.00 | 0.00 | 0.00 | 83 | 1013.1 |
| 20260508020053 | 61 | 281 | 3.5 | 7.0 | 0.00 | 0.00 | 0.00 | 83 | 1013.1 |
| 20260508015544 | 62 | 268 | 2.6 | 8.7 | 0.00 | 0.00 | 0.00 | 82 | 1013.1 |
| 20260508015037 | 62 | 235 | 3.5 | 8.7 | 0.00 | 0.00 | 0.00 | 83 | 1013.1 |
| 20260508014529 | 62 | 288 | 1.7 | 7.8 | 0.00 | 0.00 | 0.00 | 82 | 1012.8 |
| 20260508014022 | 62 | 281 | 4.3 | 7.8 | 0.00 | 0.00 | 0.00 | 81 | 1012.8 |
| 20260508013006 | 62 | 231 | 5.2 | 8.7 | 0.00 | 0.00 | 0.00 | 82 | 1012.8 |
| 20260508011951 | 63 | 214 | 4.3 | 8.7 | 0.00 | 0.00 | 0.00 | 79 | 1013.1 |
| 20260508011444 | 63 | 228 | 5.2 | 8.7 | 0.00 | 0.00 | 0.00 | 81 | 1013.1 |
| 20260508010429 | 62 | 249 | 4.3 | 11.3 | 0.00 | 0.00 | 0.00 | 82 | 1012.8 |
| 20260508005921 | 62 | 262 | 6.1 | 11.3 | 0.00 | 0.00 | 0.00 | 80 | 1012.8 |
| 20260508005413 | 63 | 230 | 6.1 | 11.3 | 0.00 | 0.00 | 0.00 | 79 | 1012.8 |
| 20260508004905 | 64 | 272 | 7.8 | 11.3 | 0.00 | 0.00 | 0.00 | 78 | 1012.8 |
| 20260508004358 | 64 | 234 | 5.2 | 11.3 | 0.00 | 0.00 | 0.00 | 77 | 1013.1 |
| 20260508003851 | 64 | 216 | 7.0 | 12.2 | 0.00 | 0.00 | 0.00 | 76 | 1012.8 |
| 20260508003342 | 65 | 263 | 6.1 | 12.2 | 0.00 | 0.00 | 0.00 | 75 | 1012.8 |
| 20260508002835 | 65 | 231 | 5.2 | 9.6 | 0.00 | 0.00 | 0.00 | 75 | 1012.8 |
| 20260508002328 | 65 | 266 | 4.3 | 13.0 | 0.00 | 0.00 | 0.00 | 73 | 1012.8 |
| 20260508001819 | 65 | 245 | 3.5 | 13.0 | 0.00 | 0.00 | 0.00 | 72 | 1012.8 |
| 20260508000804 | 65 | 211 | 6.1 | 11.3 | 0.00 | 0.00 | 0.00 | 72 | 1012.8 |
| 20260508000257 | 66 | 243 | 7.8 | 9.6 | 0.00 | 0.00 | 0.00 | 70 | 1012.8 |
| 20260507235750 | 66 | 265 | 7.8 | 12.2 | 0.00 | 0.00 | 0.00 | 69 | 1012.8 |
| 20260507235242 | 66 | 256 | 4.3 | 12.2 | 0.00 | 0.00 | 0.00 | 70 | 1012.8 |
| 20260507234734 | 65 | 182 | 4.3 | 11.3 | 0.00 | 0.00 | 0.00 | 71 | 1013.1 |
| 20260507234226 | 66 | 228 | 7.8 | 11.3 | 0.00 | 0.00 | 0.00 | 71 | 1013.1 |
| 20260507233719 | 66 | 281 | 7.0 | 11.3 | 0.00 | 0.00 | 0.00 | 71 | 1012.8 |
| 20260507233212 | 65 | 207 | 5.2 | 11.3 | 0.00 | 0.00 | 0.00 | 73 | 1013.1 |
| 20260507232703 | 65 | 252 | 5.2 | 11.3 | 0.00 | 0.00 | 0.00 | 73 | 1013.1 |
| 20260507232156 | 65 | 257 | 5.2 | 11.3 | 0.00 | 0.00 | 0.00 | 72 | 1013.1 |
| 20260507231648 | 66 | 230 | 7.0 | 8.7 | 0.00 | 0.00 | 0.00 | 73 | 1013.1 |
| 20260507231141 | 66 | 271 | 5.2 | 8.7 | 0.00 | 0.00 | 0.00 | 72 | 1013.1 |
| 20260507230125 | 65 | 219 | 5.2 | 12.2 | 0.00 | 0.00 | 0.00 | 73 | 1013.1 |
| 20260507225618 | 67 | 196 | 5.2 | 11.3 | 0.00 | 0.00 | 0.00 | 71 | 1013.1 |
| 20260507225110 | 66 | 272 | 5.2 | 11.3 | 0.00 | 0.00 | 0.00 | 75 | 1013.1 |
| 20260507224603 | 65 | 232 | 7.8 | 11.3 | 0.00 | 0.00 | 0.00 | 76 | 1013.1 |
| 20260507224055 | 65 | 235 | 7.8 | 13.0 | 0.00 | 0.00 | 0.00 | 77 | 1013.4 |
| 20260507223548 | 66 | 213 | 11.3 | 13.0 | 0.00 | 0.00 | 0.00 | 75 | 1013.4 |
| 20260507222533 | 66 | 238 | 7.8 | 12.2 | 0.00 | 0.00 | 0.00 | 75 | 1013.4 |
| 20260507222026 | 67 | 199 | 7.8 | 12.2 | 0.00 | 0.00 | 0.00 | 74 | 1013.4 |
| 20260507221518 | 66 | 248 | 5.2 | 12.2 | 0.00 | 0.00 | 0.00 | 73 | 1013.4 |
| 20260507221011 | 67 | 198 | 4.3 | 12.2 | 0.00 | 0.00 | 0.00 | 74 | 1013.4 |
| 20260507220504 | 66 | 197 | 7.8 | 11.3 | 0.00 | 0.00 | 0.00 | 73 | 1013.4 |
| 20260507215957 | 67 | 15 | 7.8 | 12.2 | 0.00 | 0.00 | 0.00 | 72 | 1013.4 |
| 20260507215449 | 66 | 328 | 7.0 | 13.9 | 0.00 | 0.00 | 0.00 | 73 | 1013.4 |
| 20260507214941 | 66 | 246 | 5.2 | 13.9 | 0.00 | 0.00 | 0.00 | 73 | 1013.8 |
| 20260507214434 | 67 | 263 | 3.5 | 11.3 | 0.00 | 0.00 | 0.00 | 72 | 1013.8 |
| 20260507212912 | 67 | 202 | 4.3 | 12.2 | 0.00 | 0.00 | 0.00 | 72 | 1013.8 |
| 20260507211858 | 66 | 274 | 7.0 | 13.0 | 0.00 | 0.00 | 0.00 | 71 | 1014.1 |
| 20260507211351 | 66 | 275 | 6.1 | 13.0 | 0.00 | 0.00 | 0.00 | 74 | 1014.1 |
| 20260507210844 | 67 | 218 | 7.0 | 11.3 | 0.00 | 0.00 | 0.00 | 72 | 1014.1 |
| 20260507210336 | 67 | 258 | 5.2 | 13.0 | 0.00 | 0.00 | 0.00 | 72 | 1014.1 |
| 20260507205829 | 67 | 246 | 7.8 | 13.0 | 0.00 | 0.00 | 0.00 | 73 | 1014.5 |
| 20260507205323 | 67 | 198 | 5.2 | 13.0 | 0.00 | 0.00 | 0.00 | 72 | 1014.5 |
| 20260507204814 | 66 | 297 | 7.0 | 13.0 | 0.00 | 0.00 | 0.00 | 72 | 1014.5 |
| 20260507204307 | 67 | 210 | 5.2 | 11.3 | 0.00 | 0.00 | 0.00 | 70 | 1014.5 |
| 20260507203759 | 66 | 261 | 7.0 | 13.0 | 0.00 | 0.00 | 0.00 | 72 | 1014.5 |
| 20260507203252 | 66 | 147 | 10.4 | 13.0 | 0.00 | 0.00 | 0.00 | 70 | 1014.5 |
| 20260507202745 | 67 | 217 | 10.4 | 11.3 | 0.00 | 0.00 | 0.00 | 71 | 1014.5 |
| 20260507202238 | 67 | 219 | 7.0 | 9.6 | 0.00 | 0.00 | 0.00 | 70 | 1014.5 |
| 20260507201730 | 67 | 213 | 4.3 | 12.2 | 0.00 | 0.00 | 0.00 | 72 | 1014.5 |
| 20260507201223 | 66 | 220 | 7.8 | 12.2 | 0.00 | 0.00 | 0.00 | 73 | 1014.5 |
| 20260507200715 | 66 | 241 | 4.3 | 11.3 | 0.00 | 0.00 | 0.00 | 73 | 1014.5 |
| 20260507200208 | 67 | 189 | 4.3 | 9.6 | 0.00 | 0.00 | 0.00 | 73 | 1014.5 |
| 20260507195701 | 67 | 220 | 7.8 | 9.6 | 0.00 | 0.00 | 0.00 | 70 | 1014.8 |
| 20260507195154 | 67 | 200 | 7.0 | 8.7 | 0.00 | 0.00 | 0.00 | 72 | 1014.8 |
| 20260507194646 | 67 | 216 | 5.2 | 9.6 | 0.00 | 0.00 | 0.00 | 72 | 1014.8 |
| 20260507194139 | 66 | 215 | 7.0 | 12.2 | 0.00 | 0.00 | 0.00 | 74 | 1014.8 |
| 20260507192617 | 66 | 266 | 6.1 | 9.6 | 0.00 | 0.00 | 0.00 | 72 | 1014.8 |
| 20260507191055 | 67 | 235 | 7.8 | 9.6 | 0.00 | 0.00 | 0.00 | 72 | 1015.1 |
| 20260507190548 | 67 | 257 | 5.2 | 9.6 | 0.00 | 0.00 | 0.00 | 70 | 1015.1 |
| 20260507190040 | 66 | 203 | 7.0 | 9.6 | 0.00 | 0.00 | 0.00 | 72 | 1015.1 |
| 20260507185533 | 67 | 237 | 6.1 | 9.6 | 0.00 | 0.00 | 0.00 | 72 | 1015.1 |
| 20260507185026 | 67 | 186 | 5.2 | 8.7 | 0.00 | 0.00 | 0.00 | 69 | 1015.1 |
| 20260507184519 | 67 | 217 | 6.1 | 8.7 | 0.00 | 0.00 | 0.00 | 70 | 1015.1 |
| 20260507184011 | 66 | 229 | 5.2 | 8.7 | 0.00 | 0.00 | 0.00 | 73 | 1015.1 |
| 20260507183503 | 67 | 239 | 3.5 | 7.8 | 0.00 | 0.00 | 0.00 | 71 | 1015.1 |
| 20260507182449 | 66 | 252 | 3.5 | 7.0 | 0.00 | 0.00 | 0.00 | 72 | 1015.1 |
| 20260507181942 | 66 | 222 | 2.6 | 7.8 | 0.00 | 0.00 | 0.00 | 71 | 1015.1 |
| 20260507180928 | 66 | 233 | 7.0 | 9.6 | 0.00 | 0.00 | 0.00 | 73 | 1015.1 |
| 20260507175913 | 66 | 266 | 3.5 | 7.8 | 0.00 | 0.00 | 0.00 | 73 | 1015.1 |
| 20260507175405 | 66 | 186 | 5.2 | 7.0 | 0.00 | 0.00 | 0.00 | 73 | 1015.1 |
| 20260507174351 | 65 | 215 | 2.6 | 7.8 | 0.00 | 0.00 | 0.00 | 76 | 1015.1 |
| 20260507172830 | 65 | 334 | 1.7 | 8.7 | 0.00 | 0.00 | 0.00 | 75 | 1015.5 |
| 20260507172322 | 66 | 214 | 5.2 | 8.7 | 0.00 | 0.00 | 0.00 | 73 | 1015.5 |
| 20260507171815 | 65 | 332 | 0.9 | 7.8 | 0.00 | 0.00 | 0.00 | 75 | 1015.1 |
| 20260507171308 | 66 | 261 | 3.5 | 7.0 | 0.00 | 0.00 | 0.00 | 72 | 1015.1 |
| 20260507170800 | 66 | 305 | 2.6 | 7.0 | 0.00 | 0.00 | 0.00 | 72 | 1015.1 |
| 20260507170253 | 66 | 199 | 3.5 | 7.0 | 0.00 | 0.00 | 0.00 | 72 | 1015.5 |
| 20260507165746 | 65 | 202 | 5.2 | 7.0 | 0.00 | 0.00 | 0.00 | 73 | 1015.1 |
| 20260507165239 | 66 | 281 | 3.5 | 6.1 | 0.00 | 0.00 | 0.00 | 73 | 1015.5 |
| 20260507163717 | 65 | 293 | 1.7 | 8.7 | 0.00 | 0.00 | 0.00 | 75 | 1015.5 |
| 20260507162702 | 64 | 211 | 4.3 | 6.1 | 0.00 | 0.00 | 0.00 | 77 | 1015.5 |
| 20260507162155 | 64 | 258 | 1.7 | 5.2 | 0.00 | 0.00 | 0.00 | 77 | 1015.5 |
| 20260507161648 | 64 | 272 | 0.9 | 6.1 | 0.00 | 0.00 | 0.00 | 78 | 1015.5 |
| 20260507161142 | 64 | 226 | 2.6 | 6.1 | 0.00 | 0.00 | 0.00 | 78 | 1015.5 |
| 20260507160634 | 64 | 182 | 1.7 | 5.2 | 0.00 | 0.00 | 0.00 | 77 | 1015.5 |
| 20260507160125 | 64 | 267 | 3.5 | 5.2 | 0.00 | 0.00 | 0.00 | 77 | 1015.5 |
| 20260507155111 | 64 | 245 | 2.6 | 6.1 | 0.00 | 0.00 | 0.00 | 78 | 1015.8 |
| 20260507154604 | 63 | 240 | 3.5 | 5.2 | 0.00 | 0.00 | 0.00 | 79 | 1015.5 |
| 20260507154057 | 63 | 235 | 1.7 | 5.2 | 0.00 | 0.00 | 0.00 | 79 | 1015.5 |
| 20260507153550 | 63 | 231 | 0.9 | 5.2 | 0.00 | 0.00 | 0.00 | 79 | 1015.5 |
| 20260507153042 | 63 | 337 | 1.7 | 5.2 | 0.00 | 0.00 | 0.00 | 79 | 1015.5 |
| 20260507152027 | 62 | 196 | 1.7 | 3.5 | 0.00 | 0.00 | 0.00 | 79 | 1015.5 |
| 20260507151521 | 62 | 148 | 2.6 | 3.5 | 0.00 | 0.00 | 0.00 | 79 | 1015.5 |
| 20260507151014 | 62 | 147 | 0.9 | 2.6 | 0.00 | 0.00 | 0.00 | 80 | 1015.5 |
| 20260507150507 | 62 | 219 | 0.9 | 3.5 | 0.00 | 0.00 | 0.00 | 80 | 1015.5 |
| 20260507145959 | 62 | 244 | 0.0 | 3.5 | 0.00 | 0.00 | 0.00 | 80 | 1015.5 |
| 20260507145452 | 62 | 175 | 1.7 | 2.6 | 0.00 | 0.00 | 0.00 | 79 | 1015.5 |
| 20260507144944 | 62 | 193 | 1.7 | 2.6 | 0.00 | 0.00 | 0.00 | 79 | 1015.5 |
| 20260507144437 | 62 | 239 | 0.9 | 1.7 | 0.00 | 0.00 | 0.00 | 79 | 1015.5 |
| 20260507143930 | 62 | 310 | 0.0 | 0.9 | 0.00 | 0.00 | 0.00 | 81 | 1015.5 |
| 20260507143422 | 61 | 311 | 0.0 | 0.9 | 0.00 | 0.00 | 0.00 | 80 | 1015.5 |
| 20260507142915 | 61 | 315 | 0.0 | 0.9 | 0.00 | 0.00 | 0.00 | 81 | 1015.5 |
| 20260507142408 | 61 | 338 | 0.9 | 0.9 | 0.00 | 0.00 | 0.00 | 81 | 1015.5 |
| 20260507141900 | 60 | 338 | 0.0 | 0.9 | 0.00 | 0.00 | 0.00 | 81 | 1015.1 |
| 20260507141353 | 59 | 338 | 0.0 | 0.9 | 0.00 | 0.00 | 0.00 | 82 | 1015.1 |
| 20260507140339 | 58 | 338 | 0.0 | 0.9 | 0.00 | 0.00 | 0.00 | 83 | 1015.1 |
| 20260507135831 | 58 | 338 | 0.0 | 1.7 | 0.00 | 0.00 | 0.00 | 84 | 1015.1 |
| 20260507134817 | 56 | 332 | 0.9 | 1.7 | 0.00 | 0.00 | 0.00 | 84 | 1015.1 |
| 20260507134310 | 56 | 333 | 0.9 | 0.9 | 0.00 | 0.00 | 0.00 | 85 | 1015.1 |
| 20260507133803 | 56 | 329 | 0.9 | 1.7 | 0.00 | 0.00 | 0.00 | 85 | 1015.1 |
| 20260507132747 | 55 | 330 | 0.0 | 1.7 | 0.00 | 0.00 | 0.00 | 86 | 1015.1 |
| 20260507132240 | 55 | 339 | 0.9 | 1.7 | 0.00 | 0.00 | 0.00 | 87 | 1015.1 |
| 20260507130718 | 55 | 328 | 1.7 | 1.7 | 0.00 | 0.00 | 0.00 | 87 | 1014.8 |
| 20260507125157 | 55 | 328 | 0.9 | 1.7 | 0.00 | 0.00 | 0.00 | 87 | 1014.8 |
| 20260507124650 | 55 | 328 | 1.7 | 1.7 | 0.00 | 0.00 | 0.00 | 87 | 1014.8 |
| 20260507124142 | 55 | 325 | 0.9 | 1.7 | 0.00 | 0.00 | 0.00 | 87 | 1014.8 |
| 20260507123635 | 55 | 323 | 0.9 | 1.7 | 0.00 | 0.00 | 0.00 | 87 | 1014.8 |
| 20260507123128 | 55 | 319 | 0.0 | 1.7 | 0.00 | 0.00 | 0.00 | 87 | 1014.5 |
| 20260507122113 | 54 | 323 | 0.0 | 1.7 | 0.00 | 0.00 | 0.00 | 87 | 1014.8 |
| 20260507121605 | 54 | 331 | 0.9 | 0.9 | 0.00 | 0.00 | 0.00 | 87 | 1014.8 |
| 20260507121058 | 55 | 331 | 0.0 | 0.9 | 0.00 | 0.00 | 0.00 | 87 | 1014.8 |
| 20260507120551 | 55 | 331 | 0.0 | 0.9 | 0.00 | 0.00 | 0.00 | 87 | 1014.8 |
| 20260507120044 | 54 | 331 | 0.0 | 0.0 | 0.00 | 0.00 | 0.00 | 86 | 1014.5 |
| 20260507115537 | 55 | 331 | 0.0 | 0.9 | 0.00 | 0.00 | 0.00 | 86 | 1014.8 |
| 20260507115029 | 55 | 331 | 0.0 | 0.9 | 0.00 | 0.00 | 0.00 | 86 | 1014.8 |
| 20260507114522 | 55 | 337 | 0.9 | 0.9 | 0.00 | 0.00 | 0.00 | 86 | 1014.8 |
| 20260507114015 | 55 | 337 | 0.0 | 0.9 | 0.00 | 0.00 | 0.00 | 86 | 1014.8 |
| 20260507113508 | 55 | 337 | 0.0 | 0.9 | 0.00 | 0.00 | 0.00 | 85 | 1014.8 |
| 20260507113001 | 55 | 337 | 0.0 | 0.9 | 0.00 | 0.00 | 0.00 | 85 | 1014.8 |
| 20260507112453 | 55 | 337 | 0.0 | 1.7 | 0.00 | 0.00 | 0.00 | 86 | 1014.8 |
| 20260507111946 | 55 | 332 | 0.9 | 1.7 | 0.00 | 0.00 | 0.00 | 86 | 1014.8 |